Year,Month,Day,Hour,Minute,Value (Times are PST for temperature in C)
2013,05,05,00,00,11.60
2013,05,05,00,01,11.60
2013,05,05,00,02,11.60
2013,05,05,00,03,11.60
2013,05,05,00,04,11.60
2013,05,05,00,05,11.60
2013,05,05,00,06,11.60
2013,05,05,00,07,11.60
2013,05,05,00,08,11.60
2013,05,05,00,09,11.60
2013,05,05,00,10,11.60
2013,05,05,00,11,11.60
2013,05,05,00,12,11.60
2013,05,05,00,13,11.50
2013,05,05,00,14,11.40
2013,05,05,00,15,11.40
2013,05,05,00,16,11.40
2013,05,05,00,17,11.40
2013,05,05,00,18,11.40
2013,05,05,00,19,11.40
2013,05,05,00,20,11.40
2013,05,05,00,21,11.40
2013,05,05,00,22,11.40
2013,05,05,00,23,11.40
2013,05,05,00,24,11.30
2013,05,05,00,25,11.30
2013,05,05,00,26,11.30
2013,05,05,00,27,11.20
2013,05,05,00,28,11.20
2013,05,05,00,29,11.20
2013,05,05,00,30,11.20
2013,05,05,00,31,11.10
2013,05,05,00,32,11.10
2013,05,05,00,33,11.10
2013,05,05,00,34,11.10
2013,05,05,00,35,11.10
2013,05,05,00,36,11.10
2013,05,05,00,37,11.10
2013,05,05,00,38,11.10
2013,05,05,00,39,11.10
2013,05,05,00,40,11.20
2013,05,05,00,41,11.20
2013,05,05,00,42,11.20
2013,05,05,00,43,11.20
2013,05,05,00,44,11.20
2013,05,05,00,45,11.20
2013,05,05,00,46,11.20
2013,05,05,00,47,11.20
2013,05,05,00,48,11.20
2013,05,05,00,49,11.20
2013,05,05,00,50,11.20
2013,05,05,00,51,11.20
2013,05,05,00,52,11.10
2013,05,05,00,53,11.10
2013,05,05,00,54,11.10
2013,05,05,00,55,11.10
2013,05,05,00,56,11.10
2013,05,05,00,57,11.10
2013,05,05,00,58,11.10
2013,05,05,00,59,11.10
2013,05,05,01,00,11.00
2013,05,05,01,01,10.90
2013,05,05,01,02,10.90
2013,05,05,01,03,10.90
2013,05,05,01,04,10.90
2013,05,05,01,05,10.90
2013,05,05,01,06,10.90
2013,05,05,01,07,10.90
2013,05,05,01,08,10.90
2013,05,05,01,09,10.90
2013,05,05,01,10,10.90
2013,05,05,01,11,10.80
2013,05,05,01,12,10.80
2013,05,05,01,13,10.80
2013,05,05,01,14,10.80
2013,05,05,01,15,10.80
2013,05,05,01,16,10.80
2013,05,05,01,17,10.80
2013,05,05,01,18,10.70
2013,05,05,01,19,10.70
2013,05,05,01,20,10.70
2013,05,05,01,21,10.70
2013,05,05,01,22,10.70
2013,05,05,01,23,10.60
2013,05,05,01,24,10.60
2013,05,05,01,25,10.60
2013,05,05,01,26,10.60
2013,05,05,01,27,10.60
2013,05,05,01,28,10.60
2013,05,05,01,29,10.60
2013,05,05,01,30,10.60
2013,05,05,01,31,10.60
2013,05,05,01,32,10.60
2013,05,05,01,33,10.60
2013,05,05,01,34,10.60
2013,05,05,01,35,10.60
2013,05,05,01,36,10.60
2013,05,05,01,37,10.60
2013,05,05,01,38,10.60
2013,05,05,01,39,10.60
2013,05,05,01,40,10.60
2013,05,05,01,41,10.60
2013,05,05,01,42,10.60
2013,05,05,01,43,10.60
2013,05,05,01,44,10.60
2013,05,05,01,45,10.60
2013,05,05,01,46,10.60
2013,05,05,01,47,10.60
2013,05,05,01,48,10.60
2013,05,05,01,49,10.50
2013,05,05,01,50,10.40
2013,05,05,01,51,10.40
2013,05,05,01,52,10.40
2013,05,05,01,53,10.40
2013,05,05,01,54,10.40
2013,05,05,01,55,10.40
2013,05,05,01,56,10.40
2013,05,05,01,57,10.40
2013,05,05,01,58,10.40
2013,05,05,01,59,10.40
2013,05,05,02,00,10.40
2013,05,05,02,01,10.40
2013,05,05,02,02,10.30
2013,05,05,02,03,10.30
2013,05,05,02,04,10.30
2013,05,05,02,05,10.30
2013,05,05,02,06,10.30
2013,05,05,02,07,10.30
2013,05,05,02,08,10.30
2013,05,05,02,09,10.30
2013,05,05,02,10,10.20
2013,05,05,02,11,10.20
2013,05,05,02,12,10.20
2013,05,05,02,13,10.20
2013,05,05,02,14,10.20
2013,05,05,02,15,10.20
2013,05,05,02,16,10.20
2013,05,05,02,17,10.10
2013,05,05,02,18,10.10
2013,05,05,02,19,10.10
2013,05,05,02,20,10.10
2013,05,05,02,21,10.10
2013,05,05,02,22,10.10
2013,05,05,02,23,10.10
2013,05,05,02,24,10.10
2013,05,05,02,25,10.10
2013,05,05,02,26,10.10
2013,05,05,02,27,10.10
2013,05,05,02,28,10.10
2013,05,05,02,29,10.10
2013,05,05,02,30,10.20
2013,05,05,02,31,10.20
2013,05,05,02,32,10.20
2013,05,05,02,33,10.20
2013,05,05,02,34,10.20
2013,05,05,02,35,10.30
2013,05,05,02,36,10.30
2013,05,05,02,37,10.30
2013,05,05,02,38,10.30
2013,05,05,02,39,10.30
2013,05,05,02,40,10.30
2013,05,05,02,41,10.30
2013,05,05,02,42,10.30
2013,05,05,02,43,10.30
2013,05,05,02,44,10.30
2013,05,05,02,45,10.20
2013,05,05,02,46,10.20
2013,05,05,02,47,10.10
2013,05,05,02,48,10.10
2013,05,05,02,49,10.10
2013,05,05,02,50,10.10
2013,05,05,02,51,10.00
2013,05,05,02,52,9.90
2013,05,05,02,53,9.90
2013,05,05,02,54,9.90
2013,05,05,02,55,9.90
2013,05,05,02,56,9.90
2013,05,05,02,57,9.90
2013,05,05,02,58,9.90
2013,05,05,02,59,9.90
2013,05,05,03,00,9.90
2013,05,05,03,01,9.90
2013,05,05,03,02,9.90
2013,05,05,03,03,9.90
2013,05,05,03,04,9.90
2013,05,05,03,05,9.90
2013,05,05,03,06,9.90
2013,05,05,03,07,9.90
2013,05,05,03,08,9.90
2013,05,05,03,09,9.90
2013,05,05,03,10,9.80
2013,05,05,03,11,9.80
2013,05,05,03,12,9.80
2013,05,05,03,13,9.70
2013,05,05,03,14,9.70
2013,05,05,03,15,9.70
2013,05,05,03,16,9.70
2013,05,05,03,17,9.70
2013,05,05,03,18,9.70
2013,05,05,03,19,9.70
2013,05,05,03,20,9.70
2013,05,05,03,21,9.70
2013,05,05,03,22,9.70
2013,05,05,03,23,9.80
2013,05,05,03,24,9.80
2013,05,05,03,25,9.80
2013,05,05,03,26,9.80
2013,05,05,03,27,9.80
2013,05,05,03,28,9.80
2013,05,05,03,29,9.80
2013,05,05,03,30,9.90
2013,05,05,03,31,9.90
2013,05,05,03,32,9.90
2013,05,05,03,33,9.90
2013,05,05,03,34,9.90
2013,05,05,03,35,9.90
2013,05,05,03,36,9.90
2013,05,05,03,37,9.90
2013,05,05,03,38,9.90
2013,05,05,03,39,9.90
2013,05,05,03,40,9.90
2013,05,05,03,41,9.90
2013,05,05,03,42,9.90
2013,05,05,03,43,9.90
2013,05,05,03,44,9.90
2013,05,05,03,45,9.90
2013,05,05,03,46,9.90
2013,05,05,03,47,9.90
2013,05,05,03,48,9.90
2013,05,05,03,49,9.90
2013,05,05,03,50,9.90
2013,05,05,03,51,9.90
2013,05,05,03,52,9.90
2013,05,05,03,53,9.90
2013,05,05,03,54,9.90
2013,05,05,03,55,10.00
2013,05,05,03,56,10.10
2013,05,05,03,57,10.10
2013,05,05,03,58,10.10
2013,05,05,03,59,10.10
2013,05,05,04,00,10.10
2013,05,05,04,01,10.00
2013,05,05,04,02,9.90
2013,05,05,04,03,9.90
2013,05,05,04,04,9.90
2013,05,05,04,05,9.80
2013,05,05,04,06,9.70
2013,05,05,04,07,9.70
2013,05,05,04,08,9.70
2013,05,05,04,09,9.60
2013,05,05,04,10,9.60
2013,05,05,04,11,9.60
2013,05,05,04,12,9.50
2013,05,05,04,13,9.50
2013,05,05,04,14,9.50
2013,05,05,04,15,9.40
2013,05,05,04,16,9.40
2013,05,05,04,17,9.40
2013,05,05,04,18,9.40
2013,05,05,04,19,9.30
2013,05,05,04,20,9.30
2013,05,05,04,21,9.30
2013,05,05,04,22,9.20
2013,05,05,04,23,9.20
2013,05,05,04,24,9.20
2013,05,05,04,25,9.20
2013,05,05,04,26,9.20
2013,05,05,04,27,9.20
2013,05,05,04,28,9.20
2013,05,05,04,29,9.20
2013,05,05,04,30,9.20
2013,05,05,04,31,9.20
2013,05,05,04,32,9.20
2013,05,05,04,33,9.30
2013,05,05,04,34,9.30
2013,05,05,04,35,9.40
2013,05,05,04,36,9.40
2013,05,05,04,37,9.40
2013,05,05,04,38,9.40
2013,05,05,04,39,9.40
2013,05,05,04,40,9.40
2013,05,05,04,41,9.40
2013,05,05,04,42,9.40
2013,05,05,04,43,9.30
2013,05,05,04,44,9.30
2013,05,05,04,45,9.20
2013,05,05,04,46,9.10
2013,05,05,04,47,9.10
2013,05,05,04,48,9.00
2013,05,05,04,49,8.90
2013,05,05,04,50,8.80
2013,05,05,04,51,8.80
2013,05,05,04,52,8.70
2013,05,05,04,53,8.70
2013,05,05,04,54,8.70
2013,05,05,04,55,8.80
2013,05,05,04,56,8.80
2013,05,05,04,57,8.80
2013,05,05,04,58,8.80
2013,05,05,04,59,8.90
2013,05,05,05,00,9.00
2013,05,05,05,01,9.10
2013,05,05,05,02,9.10
2013,05,05,05,03,9.20
2013,05,05,05,04,9.30
2013,05,05,05,05,9.40
2013,05,05,05,06,9.40
2013,05,05,05,07,9.40
2013,05,05,05,08,9.50
2013,05,05,05,09,9.50
2013,05,05,05,10,9.50
2013,05,05,05,11,9.50
2013,05,05,05,12,9.40
2013,05,05,05,13,9.40
2013,05,05,05,14,9.30
2013,05,05,05,15,9.30
2013,05,05,05,16,9.20
2013,05,05,05,17,9.20
2013,05,05,05,18,9.20
2013,05,05,05,19,9.20
2013,05,05,05,20,9.20
2013,05,05,05,21,9.20
2013,05,05,05,22,9.20
2013,05,05,05,23,9.10
2013,05,05,05,24,9.10
2013,05,05,05,25,9.10
2013,05,05,05,26,9.10
2013,05,05,05,27,9.10
2013,05,05,05,28,9.10
2013,05,05,05,29,9.10
2013,05,05,05,30,9.10
2013,05,05,05,31,9.00
2013,05,05,05,32,9.00
2013,05,05,05,33,9.00
2013,05,05,05,34,9.00
2013,05,05,05,35,9.00
2013,05,05,05,36,9.00
2013,05,05,05,37,9.00
2013,05,05,05,38,8.90
2013,05,05,05,39,8.90
2013,05,05,05,40,8.90
2013,05,05,05,41,8.90
2013,05,05,05,42,8.90
2013,05,05,05,43,8.80
2013,05,05,05,44,8.80
2013,05,05,05,45,8.80
2013,05,05,05,46,8.80
2013,05,05,05,47,8.80
2013,05,05,05,48,8.70
2013,05,05,05,49,8.70
2013,05,05,05,50,8.70
2013,05,05,05,51,8.70
2013,05,05,05,52,8.70
2013,05,05,05,53,8.70
2013,05,05,05,54,8.70
2013,05,05,05,55,8.70
2013,05,05,05,56,8.70
2013,05,05,05,57,8.70
2013,05,05,05,58,8.60
2013,05,05,05,59,8.60
2013,05,05,06,00,8.60
2013,05,05,06,01,8.60
2013,05,05,06,02,8.60
2013,05,05,06,03,8.60
2013,05,05,06,04,8.60
2013,05,05,06,05,8.70
2013,05,05,06,06,8.70
2013,05,05,06,07,8.70
2013,05,05,06,08,8.70
2013,05,05,06,09,8.70
2013,05,05,06,10,8.70
2013,05,05,06,11,8.70
2013,05,05,06,12,8.70
2013,05,05,06,13,8.70
2013,05,05,06,14,8.70
2013,05,05,06,15,8.70
2013,05,05,06,16,8.70
2013,05,05,06,17,8.70
2013,05,05,06,18,8.70
2013,05,05,06,19,8.70
2013,05,05,06,20,8.70
2013,05,05,06,21,8.70
2013,05,05,06,22,8.70
2013,05,05,06,23,8.70
2013,05,05,06,24,8.70
2013,05,05,06,25,8.70
2013,05,05,06,26,8.70
2013,05,05,06,27,8.70
2013,05,05,06,28,8.60
2013,05,05,06,29,8.60
2013,05,05,06,30,8.60
2013,05,05,06,31,8.60
2013,05,05,06,32,8.60
2013,05,05,06,33,8.60
2013,05,05,06,34,8.60
2013,05,05,06,35,8.60
2013,05,05,06,36,8.70
2013,05,05,06,37,8.70
2013,05,05,06,38,8.70
2013,05,05,06,39,8.70
2013,05,05,06,40,8.70
2013,05,05,06,41,8.70
2013,05,05,06,42,8.70
2013,05,05,06,43,8.70
2013,05,05,06,44,8.70
2013,05,05,06,45,8.70
2013,05,05,06,46,8.70
2013,05,05,06,47,8.70
2013,05,05,06,48,8.80
2013,05,05,06,49,8.80
2013,05,05,06,50,8.80
2013,05,05,06,51,8.90
2013,05,05,06,52,8.90
2013,05,05,06,53,8.90
2013,05,05,06,54,9.00
2013,05,05,06,55,9.00
2013,05,05,06,56,9.10
2013,05,05,06,57,9.10
2013,05,05,06,58,9.20
2013,05,05,06,59,9.20
2013,05,05,07,00,9.20
2013,05,05,07,01,9.20
2013,05,05,07,02,9.30
2013,05,05,07,03,9.40
2013,05,05,07,04,9.40
2013,05,05,07,05,9.40
2013,05,05,07,06,9.50
2013,05,05,07,07,9.50
2013,05,05,07,08,9.60
2013,05,05,07,09,9.60
2013,05,05,07,10,9.70
2013,05,05,07,11,9.70
2013,05,05,07,12,9.80
2013,05,05,07,13,9.80
2013,05,05,07,14,9.90
2013,05,05,07,15,10.00
2013,05,05,07,16,10.10
2013,05,05,07,17,10.20
2013,05,05,07,18,10.20
2013,05,05,07,19,10.30
2013,05,05,07,20,10.40
2013,05,05,07,21,10.40
2013,05,05,07,22,10.40
2013,05,05,07,23,10.40
2013,05,05,07,24,10.50
2013,05,05,07,25,10.60
2013,05,05,07,26,10.60
2013,05,05,07,27,10.70
2013,05,05,07,28,10.80
2013,05,05,07,29,10.90
2013,05,05,07,30,11.10
2013,05,05,07,31,11.20
2013,05,05,07,32,11.30
2013,05,05,07,33,11.50
2013,05,05,07,34,11.60
2013,05,05,07,35,11.80
2013,05,05,07,36,11.80
2013,05,05,07,37,12.00
2013,05,05,07,38,12.10
2013,05,05,07,39,12.20
2013,05,05,07,40,12.40
2013,05,05,07,41,12.50
2013,05,05,07,42,12.70
2013,05,05,07,43,12.80
2013,05,05,07,44,13.00
2013,05,05,07,45,13.00
2013,05,05,07,46,13.10
2013,05,05,07,47,13.10
2013,05,05,07,48,13.20
2013,05,05,07,49,13.30
2013,05,05,07,50,13.40
2013,05,05,07,51,13.50
2013,05,05,07,52,13.50
2013,05,05,07,53,13.60
2013,05,05,07,54,13.70
2013,05,05,07,55,13.70
2013,05,05,07,56,13.70
2013,05,05,07,57,13.80
2013,05,05,07,58,13.90
2013,05,05,07,59,14.00
2013,05,05,08,00,14.10
2013,05,05,08,01,14.20
2013,05,05,08,02,14.40
2013,05,05,08,03,14.60
2013,05,05,08,04,14.80
2013,05,05,08,05,14.90
2013,05,05,08,06,15.10
2013,05,05,08,07,15.20
2013,05,05,08,08,15.30
2013,05,05,08,09,15.40
2013,05,05,08,10,15.50
2013,05,05,08,11,15.60
2013,05,05,08,12,15.70
2013,05,05,08,13,15.70
2013,05,05,08,14,15.70
2013,05,05,08,15,15.70
2013,05,05,08,16,15.80
2013,05,05,08,17,15.80
2013,05,05,08,18,15.90
2013,05,05,08,19,15.90
2013,05,05,08,20,16.00
2013,05,05,08,21,16.10
2013,05,05,08,22,16.10
2013,05,05,08,23,16.10
2013,05,05,08,24,16.10
2013,05,05,08,25,16.10
2013,05,05,08,26,16.10
2013,05,05,08,27,16.20
2013,05,05,08,28,16.20
2013,05,05,08,29,16.20
2013,05,05,08,30,16.20
2013,05,05,08,31,16.20
2013,05,05,08,32,16.30
2013,05,05,08,33,16.30
2013,05,05,08,34,16.30
2013,05,05,08,35,16.30
2013,05,05,08,36,16.40
2013,05,05,08,37,16.40
2013,05,05,08,38,16.40
2013,05,05,08,39,16.40
2013,05,05,08,40,16.50
2013,05,05,08,41,16.60
2013,05,05,08,42,16.70
2013,05,05,08,43,16.70
2013,05,05,08,44,16.70
2013,05,05,08,45,16.80
2013,05,05,08,46,16.90
2013,05,05,08,47,16.90
2013,05,05,08,48,16.90
2013,05,05,08,49,17.00
2013,05,05,08,50,17.00
2013,05,05,08,51,17.10
2013,05,05,08,52,17.20
2013,05,05,08,53,17.30
2013,05,05,08,54,17.50
2013,05,05,08,55,17.50
2013,05,05,08,56,17.60
2013,05,05,08,57,17.60
2013,05,05,08,58,17.70
2013,05,05,08,59,17.70
2013,05,05,09,00,17.90
2013,05,05,09,01,18.00
2013,05,05,09,02,18.10
2013,05,05,09,03,18.20
2013,05,05,09,04,18.30
2013,05,05,09,05,18.40
2013,05,05,09,06,18.50
2013,05,05,09,07,18.60
2013,05,05,09,08,18.60
2013,05,05,09,09,18.70
2013,05,05,09,10,18.80
2013,05,05,09,11,18.80
2013,05,05,09,12,18.80
2013,05,05,09,13,18.90
2013,05,05,09,14,18.90
2013,05,05,09,15,19.00
2013,05,05,09,16,19.10
2013,05,05,09,17,19.20
2013,05,05,09,18,19.30
2013,05,05,09,19,19.30
2013,05,05,09,20,19.40
2013,05,05,09,21,19.40
2013,05,05,09,22,19.50
2013,05,05,09,23,19.50
2013,05,05,09,24,19.60
2013,05,05,09,25,19.60
2013,05,05,09,26,19.50
2013,05,05,09,27,19.40
2013,05,05,09,28,19.40
2013,05,05,09,29,19.40
2013,05,05,09,30,19.40
2013,05,05,09,31,19.50
2013,05,05,09,32,19.50
2013,05,05,09,33,19.50
2013,05,05,09,34,19.60
2013,05,05,09,35,19.60
2013,05,05,09,36,19.60
2013,05,05,09,37,19.80
2013,05,05,09,38,19.90
2013,05,05,09,39,19.90
2013,05,05,09,40,19.90
2013,05,05,09,41,20.00
2013,05,05,09,42,20.10
2013,05,05,09,43,20.20
2013,05,05,09,44,20.20
2013,05,05,09,45,20.20
2013,05,05,09,46,20.20
2013,05,05,09,47,20.20
2013,05,05,09,48,20.20
2013,05,05,09,49,20.20
2013,05,05,09,50,20.20
2013,05,05,09,51,20.30
2013,05,05,09,52,20.30
2013,05,05,09,53,20.40
2013,05,05,09,54,20.40
2013,05,05,09,55,20.50
2013,05,05,09,56,20.60
2013,05,05,09,57,20.60
2013,05,05,09,58,20.70
2013,05,05,09,59,20.70
2013,05,05,10,00,20.70
2013,05,05,10,01,20.80
2013,05,05,10,02,20.80
2013,05,05,10,03,20.90
2013,05,05,10,04,20.90
2013,05,05,10,05,21.00
2013,05,05,10,06,21.00
2013,05,05,10,07,21.10
2013,05,05,10,08,21.20
2013,05,05,10,09,21.30
2013,05,05,10,10,21.30
2013,05,05,10,11,21.30
2013,05,05,10,12,21.30
2013,05,05,10,13,21.40
2013,05,05,10,14,21.40
2013,05,05,10,15,21.40
2013,05,05,10,16,21.30
2013,05,05,10,17,21.40
2013,05,05,10,18,21.50
2013,05,05,10,19,21.60
2013,05,05,10,20,21.70
2013,05,05,10,21,21.80
2013,05,05,10,22,21.90
2013,05,05,10,23,21.90
2013,05,05,10,24,21.90
2013,05,05,10,25,21.90
2013,05,05,10,26,21.90
2013,05,05,10,27,21.90
2013,05,05,10,28,22.00
2013,05,05,10,29,22.00
2013,05,05,10,30,22.00
2013,05,05,10,31,22.10
2013,05,05,10,32,22.10
2013,05,05,10,33,22.20
2013,05,05,10,34,22.30
2013,05,05,10,35,22.30
2013,05,05,10,36,22.20
2013,05,05,10,37,22.30
2013,05,05,10,38,22.30
2013,05,05,10,39,22.30
2013,05,05,10,40,22.30
2013,05,05,10,41,22.40
2013,05,05,10,42,22.50
2013,05,05,10,43,22.50
2013,05,05,10,44,22.50
2013,05,05,10,45,22.60
2013,05,05,10,46,22.60
2013,05,05,10,47,22.60
2013,05,05,10,48,22.60
2013,05,05,10,49,22.60
2013,05,05,10,50,22.60
2013,05,05,10,51,22.70
2013,05,05,10,52,22.70
2013,05,05,10,53,22.70
2013,05,05,10,54,22.70
2013,05,05,10,55,22.80
2013,05,05,10,56,22.80
2013,05,05,10,57,22.80
2013,05,05,10,58,22.90
2013,05,05,10,59,22.90
2013,05,05,11,00,22.90
2013,05,05,11,01,22.90
2013,05,05,11,02,23.10
2013,05,05,11,03,23.10
2013,05,05,11,04,23.20
2013,05,05,11,05,23.20
2013,05,05,11,06,23.30
2013,05,05,11,07,23.30
2013,05,05,11,08,23.20
2013,05,05,11,09,23.10
2013,05,05,11,10,23.00
2013,05,05,11,11,23.10
2013,05,05,11,12,23.20
2013,05,05,11,13,23.20
2013,05,05,11,14,23.30
2013,05,05,11,15,23.30
2013,05,05,11,16,23.30
2013,05,05,11,17,23.40
2013,05,05,11,18,23.50
2013,05,05,11,19,23.60
2013,05,05,11,20,23.60
2013,05,05,11,21,23.70
2013,05,05,11,22,23.70
2013,05,05,11,23,23.80
2013,05,05,11,24,23.80
2013,05,05,11,25,23.90
2013,05,05,11,26,23.90
2013,05,05,11,27,23.90
2013,05,05,11,28,23.90
2013,05,05,11,29,23.90
2013,05,05,11,30,23.90
2013,05,05,11,31,23.90
2013,05,05,11,32,23.80
2013,05,05,11,33,23.80
2013,05,05,11,34,23.80
2013,05,05,11,35,23.90
2013,05,05,11,36,24.00
2013,05,05,11,37,24.10
2013,05,05,11,38,24.10
2013,05,05,11,39,24.10
2013,05,05,11,40,24.10
2013,05,05,11,41,24.10
2013,05,05,11,42,24.10
2013,05,05,11,43,24.10
2013,05,05,11,44,24.10
2013,05,05,11,45,24.20
2013,05,05,11,46,24.10
2013,05,05,11,47,24.10
2013,05,05,11,48,24.10
2013,05,05,11,49,24.20
2013,05,05,11,50,24.30
2013,05,05,11,51,24.30
2013,05,05,11,52,24.40
2013,05,05,11,53,24.40
2013,05,05,11,54,24.40
2013,05,05,11,55,24.40
2013,05,05,11,56,24.40
2013,05,05,11,57,24.50
2013,05,05,11,58,24.50
2013,05,05,11,59,24.60
2013,05,05,12,00,24.60
2013,05,05,12,01,24.70
2013,05,05,12,02,24.70
2013,05,05,12,03,24.70
2013,05,05,12,04,24.80
2013,05,05,12,05,24.90
2013,05,05,12,06,24.90
2013,05,05,12,07,24.90
2013,05,05,12,08,24.90
2013,05,05,12,09,24.90
2013,05,05,12,10,24.80
2013,05,05,12,11,24.80
2013,05,05,12,12,24.80
2013,05,05,12,13,24.70
2013,05,05,12,14,24.70
2013,05,05,12,15,24.70
2013,05,05,12,16,24.70
2013,05,05,12,17,24.70
2013,05,05,12,18,24.70
2013,05,05,12,19,24.70
2013,05,05,12,20,24.80
2013,05,05,12,21,24.80
2013,05,05,12,22,24.80
2013,05,05,12,23,24.80
2013,05,05,12,24,24.80
2013,05,05,12,25,24.90
2013,05,05,12,26,24.80
2013,05,05,12,27,24.80
2013,05,05,12,28,24.80
2013,05,05,12,29,24.80
2013,05,05,12,30,24.80
2013,05,05,12,31,24.80
2013,05,05,12,32,24.80
2013,05,05,12,33,24.80
2013,05,05,12,34,24.80
2013,05,05,12,35,24.80
2013,05,05,12,36,24.80
2013,05,05,12,37,24.80
2013,05,05,12,38,24.70
2013,05,05,12,39,24.80
2013,05,05,12,40,24.80
2013,05,05,12,41,24.90
2013,05,05,12,42,24.80
2013,05,05,12,43,24.80
2013,05,05,12,44,24.70
2013,05,05,12,45,24.60
2013,05,05,12,46,24.40
2013,05,05,12,47,24.40
2013,05,05,12,48,24.50
2013,05,05,12,49,24.60
2013,05,05,12,50,24.60
2013,05,05,12,51,24.50
2013,05,05,12,52,24.50
2013,05,05,12,53,24.50
2013,05,05,12,54,24.40
2013,05,05,12,55,24.30
2013,05,05,12,56,24.30
2013,05,05,12,57,24.30
2013,05,05,12,58,24.40
2013,05,05,12,59,24.40
2013,05,05,13,00,24.50
2013,05,05,13,01,24.70
2013,05,05,13,02,24.90
2013,05,05,13,03,24.90
2013,05,05,13,04,25.00
2013,05,05,13,05,25.10
2013,05,05,13,06,25.00
2013,05,05,13,07,25.00
2013,05,05,13,08,24.90
2013,05,05,13,09,24.80
2013,05,05,13,10,24.80
2013,05,05,13,11,24.80
2013,05,05,13,12,24.80
2013,05,05,13,13,24.70
2013,05,05,13,14,24.80
2013,05,05,13,15,24.80
2013,05,05,13,16,24.90
2013,05,05,13,17,24.90
2013,05,05,13,18,25.00
2013,05,05,13,19,25.10
2013,05,05,13,20,25.10
2013,05,05,13,21,25.10
2013,05,05,13,22,25.10
2013,05,05,13,23,25.10
2013,05,05,13,24,25.00
2013,05,05,13,25,25.00
2013,05,05,13,26,25.00
2013,05,05,13,27,25.00
2013,05,05,13,28,25.10
2013,05,05,13,29,25.10
2013,05,05,13,30,25.10
2013,05,05,13,31,25.10
2013,05,05,13,32,25.10
2013,05,05,13,33,25.10
2013,05,05,13,34,25.10
2013,05,05,13,35,25.10
2013,05,05,13,36,25.00
2013,05,05,13,37,25.00
2013,05,05,13,38,25.00
2013,05,05,13,39,24.90
2013,05,05,13,40,25.00
2013,05,05,13,41,25.10
2013,05,05,13,42,25.10
2013,05,05,13,43,25.20
2013,05,05,13,44,25.30
2013,05,05,13,45,25.30
2013,05,05,13,46,25.40
2013,05,05,13,47,25.40
2013,05,05,13,48,25.50
2013,05,05,13,49,25.50
2013,05,05,13,50,25.50
2013,05,05,13,51,25.50
2013,05,05,13,52,25.50
2013,05,05,13,53,25.50
2013,05,05,13,54,25.40
2013,05,05,13,55,25.40
2013,05,05,13,56,25.50
2013,05,05,13,57,25.40
2013,05,05,13,58,25.30
2013,05,05,13,59,25.30
2013,05,05,14,00,25.20
2013,05,05,14,01,25.20
2013,05,05,14,02,25.30
2013,05,05,14,03,25.40
2013,05,05,14,04,25.60
2013,05,05,14,05,25.70
2013,05,05,14,06,25.80
2013,05,05,14,07,25.90
2013,05,05,14,08,26.00
2013,05,05,14,09,26.00
2013,05,05,14,10,26.10
2013,05,05,14,11,26.00
2013,05,05,14,12,26.00
2013,05,05,14,13,26.00
2013,05,05,14,14,26.00
2013,05,05,14,15,26.00
2013,05,05,14,16,26.00
2013,05,05,14,17,26.00
2013,05,05,14,18,25.90
2013,05,05,14,19,25.80
2013,05,05,14,20,25.70
2013,05,05,14,21,25.60
2013,05,05,14,22,25.60
2013,05,05,14,23,25.60
2013,05,05,14,24,25.60
2013,05,05,14,25,25.80
2013,05,05,14,26,25.90
2013,05,05,14,27,25.90
2013,05,05,14,28,26.00
2013,05,05,14,29,26.00
2013,05,05,14,30,26.10
2013,05,05,14,31,26.10
2013,05,05,14,32,26.20
2013,05,05,14,33,26.20
2013,05,05,14,34,26.20
2013,05,05,14,35,26.20
2013,05,05,14,36,26.20
2013,05,05,14,37,26.20
2013,05,05,14,38,26.30
2013,05,05,14,39,26.30
2013,05,05,14,40,26.30
2013,05,05,14,41,26.30
2013,05,05,14,42,26.30
2013,05,05,14,43,26.30
2013,05,05,14,44,26.30
2013,05,05,14,45,26.30
2013,05,05,14,46,26.30
2013,05,05,14,47,26.30
2013,05,05,14,48,26.20
2013,05,05,14,49,26.20
2013,05,05,14,50,26.20
2013,05,05,14,51,26.20
2013,05,05,14,52,26.10
2013,05,05,14,53,26.10
2013,05,05,14,54,26.00
2013,05,05,14,55,26.00
2013,05,05,14,56,26.00
2013,05,05,14,57,26.00
2013,05,05,14,58,26.00
2013,05,05,14,59,26.10
2013,05,05,15,00,25.90
2013,05,05,15,01,25.70
2013,05,05,15,02,25.60
2013,05,05,15,03,25.60
2013,05,05,15,04,25.60
2013,05,05,15,05,25.60
2013,05,05,15,06,25.50
2013,05,05,15,07,25.40
2013,05,05,15,08,25.40
2013,05,05,15,09,25.40
2013,05,05,15,10,25.50
2013,05,05,15,11,25.60
2013,05,05,15,12,25.70
2013,05,05,15,13,25.80
2013,05,05,15,14,26.00
2013,05,05,15,15,26.10
2013,05,05,15,16,26.30
2013,05,05,15,17,26.50
2013,05,05,15,18,26.60
2013,05,05,15,19,26.60
2013,05,05,15,20,26.60
2013,05,05,15,21,26.60
2013,05,05,15,22,26.60
2013,05,05,15,23,26.60
2013,05,05,15,24,26.70
2013,05,05,15,25,26.80
2013,05,05,15,26,26.90
2013,05,05,15,27,27.00
2013,05,05,15,28,27.00
2013,05,05,15,29,26.90
2013,05,05,15,30,27.10
2013,05,05,15,31,27.10
2013,05,05,15,32,27.00
2013,05,05,15,33,26.40
2013,05,05,15,34,25.60
2013,05,05,15,35,25.00
2013,05,05,15,36,24.40
2013,05,05,15,37,23.70
2013,05,05,15,38,23.10
2013,05,05,15,39,22.70
2013,05,05,15,40,22.20
2013,05,05,15,41,22.00
2013,05,05,15,42,21.90
2013,05,05,15,43,21.80
2013,05,05,15,44,21.80
2013,05,05,15,45,21.70
2013,05,05,15,46,21.60
2013,05,05,15,47,21.60
2013,05,05,15,48,21.60
2013,05,05,15,49,21.80
2013,05,05,15,50,21.90
2013,05,05,15,51,22.00
2013,05,05,15,52,22.00
2013,05,05,15,53,22.20
2013,05,05,15,54,22.20
2013,05,05,15,55,22.30
2013,05,05,15,56,22.30
2013,05,05,15,57,22.40
2013,05,05,15,58,22.40
2013,05,05,15,59,22.40
2013,05,05,16,00,22.40
2013,05,05,16,01,22.40
2013,05,05,16,02,22.40
2013,05,05,16,03,22.50
2013,05,05,16,04,22.60
2013,05,05,16,05,22.70
2013,05,05,16,06,22.70
2013,05,05,16,07,22.80
2013,05,05,16,08,23.00
2013,05,05,16,09,23.10
2013,05,05,16,10,23.20
2013,05,05,16,11,23.30
2013,05,05,16,12,23.40
2013,05,05,16,13,23.60
2013,05,05,16,14,23.60
2013,05,05,16,15,23.60
2013,05,05,16,16,23.40
2013,05,05,16,17,23.30
2013,05,05,16,18,23.20
2013,05,05,16,19,23.30
2013,05,05,16,20,23.10
2013,05,05,16,21,22.90
2013,05,05,16,22,22.80
2013,05,05,16,23,22.80
2013,05,05,16,24,22.70
2013,05,05,16,25,22.70
2013,05,05,16,26,22.70
2013,05,05,16,27,22.70
2013,05,05,16,28,22.60
2013,05,05,16,29,22.70
2013,05,05,16,30,22.70
2013,05,05,16,31,22.60
2013,05,05,16,32,22.60
2013,05,05,16,33,22.50
2013,05,05,16,34,22.50
2013,05,05,16,35,22.40
2013,05,05,16,36,22.40
2013,05,05,16,37,22.40
2013,05,05,16,38,22.40
2013,05,05,16,39,22.40
2013,05,05,16,40,22.30
2013,05,05,16,41,22.30
2013,05,05,16,42,22.30
2013,05,05,16,43,22.30
2013,05,05,16,44,22.30
2013,05,05,16,45,22.30
2013,05,05,16,46,22.30
2013,05,05,16,47,22.30
2013,05,05,16,48,22.30
2013,05,05,16,49,22.20
2013,05,05,16,50,22.10
2013,05,05,16,51,22.10
2013,05,05,16,52,22.20
2013,05,05,16,53,22.30
2013,05,05,16,54,22.40
2013,05,05,16,55,22.50
2013,05,05,16,56,22.70
2013,05,05,16,57,22.90
2013,05,05,16,58,23.00
2013,05,05,16,59,23.20
2013,05,05,17,00,23.30
2013,05,05,17,01,23.50
2013,05,05,17,02,23.60
2013,05,05,17,03,23.80
2013,05,05,17,04,23.90
2013,05,05,17,05,23.90
2013,05,05,17,06,23.90
2013,05,05,17,07,23.90
2013,05,05,17,08,24.10
2013,05,05,17,09,24.10
2013,05,05,17,10,24.00
2013,05,05,17,11,23.90
2013,05,05,17,12,23.70
2013,05,05,17,13,23.70
2013,05,05,17,14,23.70
2013,05,05,17,15,23.70
2013,05,05,17,16,23.70
2013,05,05,17,17,23.70
2013,05,05,17,18,23.70
2013,05,05,17,19,23.70
2013,05,05,17,20,23.70
2013,05,05,17,21,23.70
2013,05,05,17,22,23.80
2013,05,05,17,23,23.90
2013,05,05,17,24,23.90
2013,05,05,17,25,24.00
2013,05,05,17,26,24.10
2013,05,05,17,27,24.10
2013,05,05,17,28,24.20
2013,05,05,17,29,24.30
2013,05,05,17,30,24.40